[[{"header":{"parameterUnit":"m.s-1","parameterCategory":1,"la1":30.2991,"la2":30.254,"lo1":-89.0895,"lo2":-89.0444,"dy":0.0017,"dx":0.0017,"nx":28,"ny":28,"refTime":"2024-11-25T09:00:00:Z","depth":0,"parameterNumber":2,"parameterNumberName":"U-component_of_WINDS"},"data":[0,0,0,0,0,0,0,0,0,0,0,0,0,0,0,0,0,0,0,0,0,0,0,0,0,0,0,0,0,0,0,0,0,0,0,0,0,0,0,0,0,0,0,0,0,0,0,0,0,0,0,0,0,0,0,0,0,0,1.9246,1.9247,0,1.9368,1.9369,1.937,1.9353,1.9351,1.9349,1.9347,1.9478,1.9483,1.9489,0,0,0,0,0,0,0,0,0,0,0,0,0,1.9009,1.9014,1.9246,1.9248,1.9249,1.9367,1.9369,1.9371,1.9353,1.9351,1.9348,1.9346,1.9476,1.9483,1.9489,0,0,0,0,0,0,0,0,0,0,0,0,0,1.912,1.9015,1.9246,1.9254,1.9256,1.9367,1.9369,1.9371,1.9354,1.935,1.9347,1.9345,1.9474,1.9482,1.949,1.9602,0,0,1.9515,1.9519,0,0,0,0,0,0,0,0,1.9113,1.9128,1.9252,1.9254,1.9256,1.9342,1.9334,1.9449,1.9354,1.9317,1.9347,1.9343,1.9436,1.9447,1.9477,1.9608,1.9614,1.9516,1.9521,1.9524,1.9526,0,0,0,0,0,0,0,1.9106,1.9123,1.9294,1.9253,1.9256,1.9256,1.9268,1.9356,1.9392,1.932,1.9319,1.9333,1.9437,1.9469,1.948,1.9616,1.9516,1.9523,1.9528,1.9531,1.9854,1.9857,0,0,0,0,0,0,1.9095,1.9117,1.929,1.9298,1.9176,1.9262,1.9276,1.9318,1.9391,1.9399,1.9336,1.9332,1.9456,1.947,1.9484,1.9625,1.9524,1.9532,1.9536,1.985,1.9855,1.9859,0,0,0,0,0,0,1.909,1.911,1.9286,1.9207,1.9229,1.927,1.9316,1.9322,1.9354,1.9403,1.941,1.9361,1.9455,1.9473,1.9574,1.9629,1.9535,1.9543,1.9846,1.9852,1.9857,1.9905,0,0,0,0,0,0,1.9083,1.9108,1.9148,1.9208,1.9234,1.937,1.932,1.9326,1.9367,1.9363,1.9429,1.9437,1.9454,1.9562,1.9582,1.9639,1.9549,1.9841,1.9848,1.9855,1.9899,1.9912,1.9922,0,0,0,0,0,1.9074,1.9157,1.9151,1.9172,1.9284,1.9373,1.9388,1.9403,1.9371,1.9414,1.9447,1.9435,1.962,1.9573,1.9595,1.9655,1.9838,1.9846,1.9854,1.9893,1.9909,1.9922,0,0,0,0,0,0,1.9104,1.9165,1.9158,1.9262,1.9313,1.937,1.9424,1.9418,1.9481,1.9475,1.9493,1.9508,1.9613,1.9644,1.959,1.9771,1.9725,1.9738,1.9747,1.9762,1.9774,1.9765,1.9556,0,0,0,0,0,1.9122,1.9187,1.9238,1.9325,1.935,1.9383,1.9423,1.943,1.9484,1.9506,1.9546,1.9601,1.9672,1.9719,1.9786,1.9903,1.9921,1.9956,1.9968,1.9977,1.9989,2.006,2.0078,1.9886,1.9886,1.9886,0,0,1.9162,1.9203,1.9242,1.9332,1.9372,1.9443,1.9401,1.9476,1.953,1.9518,1.9617,1.9649,1.9712,1.9823,1.9874,1.9853,2.0047,1.9988,1.9995,2.0002,2.0071,2.0089,2.0105,1.9892,1.9891,1.989,0,0,1.9269,1.9305,1.9384,1.9426,1.9487,1.9509,1.9528,1.9588,1.9608,1.9707,1.9702,1.9768,1.9888,1.9935,1.9975,2.0107,2.0101,2.0129,2.0192,2.0261,2.0276,2.029,2.0342,2.036,2.014,2.0141,2.0141,0,1.9311,1.9414,1.9426,1.9503,1.9546,1.9537,1.9621,1.9661,1.9742,1.9774,1.9747,1.9902,1.9944,2.0069,2.0102,2.0133,2.016,2.0122,2.0272,2.0286,2.0299,2.0349,2.0368,2.0144,2.0143,2.0143,2.0143,0,1.9465,1.9537,1.9594,1.9672,1.9721,1.98,1.9829,1.9878,1.9883,1.9909,2.0014,2.0064,2.0145,2.0175,2.018,2.0303,2.0289,2.0267,2.0222,2.032,2.0368,2.0387,2.0149,2.0147,2.0146,2.0146,0,0,1.9593,1.968,1.9701,1.9739,1.9808,1.9866,1.9948,2.0026,2.007,2.0127,2.02,2.0305,2.0287,2.0333,2.0344,2.0403,2.0512,2.0376,2.0378,2.0403,2.0658,2.0677,2.0698,2.0508,2.0511,2.0514,2.0655,0,1.9711,1.9853,1.987,1.9999,2.0069,2.0065,2.0137,2.019,2.0219,2.0285,2.0317,2.0393,2.0361,2.039,2.0449,2.0486,2.0564,2.0476,2.0581,2.0585,2.0568,2.0722,2.074,2.087,2.0673,2.0676,2.0678,0,1.9867,1.9929,2.0065,2.013,2.016,2.0224,2.03,2.0362,2.0425,2.0441,2.0495,2.0499,2.059,2.054,2.0668,2.0608,2.0652,2.0678,2.0684,2.0696,2.0639,2.0743,2.0911,2.0932,2.0707,2.0704,2.0702,0,1.9953,2.007,2.0168,2.02,2.0277,2.0324,2.0358,2.0417,2.0465,2.0532,2.0565,2.0642,2.0685,2.0747,2.0775,2.0735,2.0905,2.0855,2.0926,2.0926,2.0963,2.0961,2.1145,2.0986,2.0986,2.0985,2.0985,0,2.0085,2.0169,2.0209,2.0269,2.0366,2.0386,2.0483,2.0516,2.057,2.0641,2.0641,2.0709,2.0739,2.0813,2.0836,2.0943,2.0961,2.0981,2.0987,2.0983,2.0981,2.1014,2.1008,2.099,2.0989,2.0988,2.0987,0,2.0197,2.0226,2.0334,2.0398,2.0417,2.0486,2.0544,2.0605,2.0634,2.0724,2.0746,2.0793,2.088,2.0913,2.102,2.1035,2.116,2.1156,2.1139,2.1141,2.1212,2.1207,2.1426,2.1459,2.1275,2.1276,2.1278,0,2.0281,2.0346,2.0418,2.0465,2.0501,2.0576,2.0625,2.0649,2.0701,2.078,2.0834,2.0921,2.0991,2.1132,2.1178,2.1261,2.1262,2.1334,2.1275,2.1271,2.127,2.1267,2.1276,2.1346,2.1347,2.1349,2.135,0,2.0428,2.0441,2.0509,2.0586,2.0645,2.0706,2.0766,2.0805,2.084,2.0899,2.0987,2.1042,2.1153,2.1241,2.1327,2.1368,2.1368,2.1368,2.139,2.1388,2.1377,2.139,2.1173,2.1364,2.1362,2.1361,2.136,2.136,2.0532,2.0592,2.0654,2.0733,2.0781,2.0838,2.0901,2.0938,2.1011,2.1102,2.1112,2.1209,2.1277,2.1393,2.1437,2.1517,2.1498,2.1528,2.1537,2.1545,2.1553,2.1362,2.1532,2.1532,2.1532,2.1531,2.1531,0,2.0683,2.0723,2.0796,2.088,2.0945,2.0935,2.1003,2.1059,2.1143,2.1204,2.1275,2.1381,2.1468,2.1521,2.161,2.1664,2.1667,2.1687,2.1685,2.1696,2.1561,2.1536,2.1684,2.1684,2.1684,2.1684,2.1684,2.1684,2.077,2.0873,2.0893,2.1023,2.1063,2.1156,2.1197,2.1252,2.1302,2.1419,2.1491,2.1525,2.1586,2.168,2.1761,2.1775,2.181,2.1833,2.1847,2.172,2.1705,2.169,2.1666,2.1839,2.184,2.1976,2.1977,2.1978]},{"header":{"parameterUnit":"m.s-1","parameterCategory":1,"la1":30.2991,"la2":30.254,"lo1":-89.0895,"lo2":-89.0444,"dy":0.0017,"dx":0.0017,"nx":28,"ny":28,"refTime":"2024-11-25T09:00:00:Z","depth":0,"parameterNumber":3,"parameterNumberName":"V-component_of_WINDS"},"data":[0,0,0,0,0,0,0,0,0,0,0,0,0,0,0,0,0,0,0,0,0,0,0,0,0,0,0,0,0,0,0,0,0,0,0,0,0,0,0,0,0,0,0,0,0,0,0,0,0,0,0,0,0,0,0,0,0,0,-2.8717,-2.8717,0,-2.8634,-2.8633,-2.8632,-2.8626,-2.8627,-2.8628,-2.8628,-2.8532,-2.8528,-2.8525,0,0,0,0,0,0,0,0,0,0,0,0,0,-2.8862,-2.8859,-2.8718,-2.8717,-2.8716,-2.8634,-2.8633,-2.8632,-2.8625,-2.8627,-2.8628,-2.8629,-2.8533,-2.8529,-2.8525,0,0,0,0,0,0,0,0,0,0,0,0,0,-2.879,-2.8858,-2.8718,-2.8703,-2.8701,-2.8634,-2.8633,-2.8632,-2.8625,-2.8627,-2.8628,-2.8629,-2.8534,-2.8529,-2.8524,-2.8464,0,0,-2.8508,-2.8506,0,0,0,0,0,0,0,0,-2.8795,-2.8785,-2.8706,-2.8704,-2.8701,-2.8642,-2.8648,-2.8575,-2.8625,-2.8653,-2.8628,-2.863,-2.8567,-2.8559,-2.854,-2.8459,-2.8455,-2.8508,-2.8505,-2.8503,-2.8501,0,0,0,0,0,0,0,-2.88,-2.8789,-2.8684,-2.8705,-2.8702,-2.8697,-2.8689,-2.8634,-2.8603,-2.8651,-2.8651,-2.8641,-2.8565,-2.8545,-2.8537,-2.8454,-2.8508,-2.8503,-2.85,-2.8498,-2.8319,-2.8318,0,0,0,0,0,0,-2.8809,-2.8793,-2.8687,-2.8682,-2.8753,-2.8693,-2.8684,-2.8659,-2.8603,-2.8596,-2.864,-2.8641,-2.8553,-2.8543,-2.8534,-2.846,-2.8503,-2.8498,-2.8495,-2.8321,-2.8319,-2.8317,0,0,0,0,0,0,-2.8812,-2.8799,-2.869,-2.8737,-2.8723,-2.8689,-2.8662,-2.8657,-2.8636,-2.8595,-2.8589,-2.8626,-2.8554,-2.8541,-2.8482,-2.8456,-2.8495,-2.8491,-2.8323,-2.832,-2.8318,-2.831,0,0,0,0,0,0,-2.8816,-2.8801,-2.8779,-2.8737,-2.8721,-2.8643,-2.866,-2.8654,-2.8629,-2.8629,-2.858,-2.8573,-2.8554,-2.849,-2.8477,-2.845,-2.8487,-2.8325,-2.8322,-2.8319,-2.8313,-2.8308,-2.8304,0,0,0,0,0,-2.8821,-2.8778,-2.8778,-2.8766,-2.8694,-2.8641,-2.8631,-2.8614,-2.8627,-2.8604,-2.8578,-2.8574,-2.8462,-2.8484,-2.8469,-2.844,-2.8326,-2.8323,-2.8319,-2.8315,-2.8309,-2.8304,0,0,0,0,0,0,-2.8814,-2.8772,-2.8772,-2.8715,-2.8682,-2.864,-2.8611,-2.8608,-2.8568,-2.857,-2.8546,-2.8535,-2.8477,-2.8452,-2.8478,-2.8379,-2.8395,-2.8388,-2.8397,-2.8391,-2.8386,-2.8393,-2.8482,0,0,0,0,0,-2.8807,-2.8771,-2.8735,-2.8687,-2.8672,-2.8644,-2.862,-2.861,-2.8574,-2.8559,-2.8528,-2.849,-2.8446,-2.8417,-2.8374,-2.831,-2.8298,-2.8282,-2.8278,-2.8275,-2.8268,-2.8232,-2.8224,-2.8305,-2.8305,-2.8305,0,0,-2.8789,-2.8762,-2.874,-2.8685,-2.8659,-2.8619,-2.8632,-2.8589,-2.8559,-2.8551,-2.8494,-2.8471,-2.8426,-2.8365,-2.8335,-2.8342,-2.8244,-2.827,-2.8267,-2.8263,-2.8227,-2.822,-2.8213,-2.8302,-2.8303,-2.8303,0,0,-2.8738,-2.8714,-2.8673,-2.8647,-2.8608,-2.8591,-2.8581,-2.854,-2.8525,-2.8469,-2.8462,-2.8424,-2.8349,-2.8318,-2.8292,-2.8231,-2.8225,-2.8217,-2.8193,-2.8158,-2.8151,-2.8145,-2.8122,-2.8115,-2.8211,-2.8211,-2.8211,0,-2.872,-2.8663,-2.865,-2.8609,-2.8584,-2.858,-2.8536,-2.851,-2.8457,-2.8439,-2.8449,-2.8356,-2.8325,-2.8256,-2.8241,-2.8221,-2.8207,-2.8222,-2.8154,-2.8148,-2.8142,-2.812,-2.8112,-2.821,-2.821,-2.821,-2.8211,0,-2.8643,-2.8604,-2.8574,-2.8529,-2.8501,-2.8458,-2.8435,-2.8408,-2.8401,-2.8381,-2.8323,-2.8287,-2.8237,-2.822,-2.8211,-2.8149,-2.8155,-2.816,-2.8175,-2.8134,-2.8113,-2.8104,-2.8209,-2.8209,-2.821,-2.821,0,0,-2.8582,-2.8533,-2.8522,-2.8501,-2.8459,-2.8427,-2.8383,-2.8338,-2.8315,-2.8279,-2.824,-2.8178,-2.8182,-2.8153,-2.814,-2.8109,-2.8062,-2.8117,-2.8116,-2.8108,-2.7991,-2.7987,-2.7978,-2.806,-2.8058,-2.8057,-2.7995,0,-2.8525,-2.8452,-2.8439,-2.8373,-2.8336,-2.8332,-2.8293,-2.8262,-2.8243,-2.8206,-2.8183,-2.8139,-2.8149,-2.8132,-2.8101,-2.8075,-2.8038,-2.8079,-2.802,-2.8018,-2.8031,-2.7967,-2.7962,-2.7906,-2.7986,-2.7985,-2.7984,0,-2.8448,-2.8416,-2.8347,-2.8311,-2.8295,-2.8261,-2.8219,-2.8185,-2.8148,-2.8136,-2.8106,-2.8096,-2.8048,-2.8068,-2.7999,-2.8027,-2.8002,-2.7986,-2.7983,-2.7975,-2.7998,-2.7956,-2.7887,-2.7878,-2.7971,-2.7972,-2.7973,0,-2.841,-2.8348,-2.83,-2.8282,-2.8239,-2.8215,-2.8195,-2.8161,-2.8135,-2.8097,-2.808,-2.8035,-2.8011,-2.7975,-2.7953,-2.797,-2.7886,-2.7904,-2.7872,-2.7873,-2.7853,-2.7855,-2.7778,-2.784,-2.784,-2.784,-2.784,0,-2.8347,-2.8305,-2.8282,-2.8252,-2.8204,-2.8189,-2.8141,-2.8121,-2.8091,-2.8054,-2.8047,-2.8012,-2.7986,-2.7947,-2.7929,-2.7874,-2.7863,-2.785,-2.7846,-2.785,-2.7852,-2.7832,-2.7835,-2.7838,-2.7838,-2.7839,-2.7839,0,-2.8296,-2.8279,-2.8226,-2.8191,-2.8181,-2.8147,-2.8115,-2.8084,-2.8067,-2.802,-2.8008,-2.7979,-2.7932,-2.7908,-2.7848,-2.7837,-2.7775,-2.7773,-2.7789,-2.7786,-2.7756,-2.7759,-2.7663,-2.7649,-2.7721,-2.7721,-2.772,0,-2.8256,-2.8224,-2.8187,-2.8165,-2.8146,-2.8108,-2.8083,-2.8067,-2.804,-2.7997,-2.797,-2.7925,-2.7887,-2.7813,-2.7783,-2.7738,-2.7734,-2.7704,-2.7727,-2.7732,-2.7732,-2.7734,-2.773,-2.7699,-2.7698,-2.7698,-2.7697,0,-2.8187,-2.8181,-2.8147,-2.811,-2.8082,-2.805,-2.802,-2.8,-2.7979,-2.7948,-2.7904,-2.7875,-2.7817,-2.777,-2.7723,-2.7699,-2.7693,-2.7691,-2.7681,-2.7684,-2.7694,-2.7687,-2.7776,-2.7692,-2.7693,-2.7693,-2.7693,-2.7694,-2.8139,-2.8111,-2.8082,-2.8044,-2.802,-2.7992,-2.7962,-2.7941,-2.7905,-2.7859,-2.785,-2.7802,-2.7765,-2.7702,-2.7677,-2.7637,-2.7642,-2.7628,-2.7624,-2.7621,-2.7619,-2.7703,-2.7628,-2.7628,-2.7628,-2.7628,-2.7628,0,-2.8069,-2.8051,-2.8017,-2.7976,-2.7946,-2.7948,-2.7915,-2.7888,-2.7847,-2.7815,-2.778,-2.7727,-2.7683,-2.7652,-2.7606,-2.7579,-2.7575,-2.7567,-2.7568,-2.7562,-2.7617,-2.763,-2.7571,-2.7571,-2.7571,-2.7571,-2.7571,-2.7571,-2.8029,-2.7982,-2.7972,-2.7912,-2.7893,-2.7849,-2.7829,-2.7802,-2.7777,-2.772,-2.7685,-2.7667,-2.7634,-2.7586,-2.7544,-2.7536,-2.7519,-2.7511,-2.7502,-2.7553,-2.7559,-2.7564,-2.7576,-2.7507,-2.7507,-2.745,-2.745,-2.7449]}]]